Wind_Speed
28 28 28 29 29 29 29 29 28 26 24 22 19 18 16 13 12 10 8 7 6 5 4 4 5 6 6 7 7 7 7 7 7 6 7 7 7 8 8 8 8 9 9 10 10 11 11 11 11 11 11 11 11 11 11 11 11 11 11 11 11 11 12 12 13 13 13 13 13 14 14 14 14 15 15 15 15 14 15 15 17 18 19 20 22
29 27 27 28 28 28 28 29 29 27 25 23 22 20 18 15 14 12 10 9 8 6 6 5 5 6 6 6 6 6 6 7 7 7 7 6 6 7 7 7 7 7 8 8 8 9 9 9 10 10 11 11 11 11 11 11 11 11 10 10 11 11 11 12 12 13 13 13 13 13 14 15 15 15 16 16 17 16 16 17 18 19 20 21 22
29 27 26 27 28 28 28 28 28 27 26 25 24 22 19 17 16 14 12 10 9 8 7 7 6 7 7 7 6 6 6 6 7 7 7 7 7 7 7 7 7 8 8 8 8 8 8 8 8 9 10 10 11 11 11 11 11 10 10 10 10 11 11 12 13 13 13 13 13 13 14 15 16 16 17 18 18 18 18 18 18 20 21 22 22
30 28 27 26 27 28 28 28 28 28 27 25 25 23 21 19 17 15 14 12 11 10 9 8 8 8 8 8 7 6 5 5 5 6 7 7 7 7 7 7 7 8 8 8 8 8 8 8 9 9 10 10 10 11 11 11 11 11 10 11 11 11 11 12 13 13 13 14 14 14 15 15 16 17 17 18 19 19 18 18 18 19 21 22 21
32 30 28 26 27 28 29 29 29 28 27 25 25 24 22 20 18 17 15 14 12 12 10 9 9 9 9 9 8 7 5 4 4 5 5 6 7 7 7 7 7 7 8 9 9 9 9 9 9 9 10 10 11 11 11 11 11 11 11 11 11 11 12 12 13 13 14 14 15 15 16 16 16 17 18 19 19 18 17 17 18 19 20 20 19
34 32 29 27 27 28 29 30 30 29 26 25 24 23 23 21 19 18 16 15 14 13 12 10 10 10 11 10 9 7 5 4 3 3 3 4 5 6 6 7 7 8 8 9 9 10 10 10 10 10 10 10 11 11 12 12 12 12 12 12 12 13 13 13 14 14 15 15 16 17 17 17 17 17 18 19 19 18 17 17 17 18 19 19 19
35 33 30 28 28 28 29 30 30 29 26 24 23 23 22 21 20 19 17 16 15 14 12 11 11 11 11 10 9 7 6 4 3 2 2 2 3 4 5 6 7 8 9 9 10 10 11 11 10 10 10 11 11 11 12 13 14 14 14 14 14 14 15 15 16 16 16 17 17 18 18 18 18 18 19 19 19 18 17 17 17 17 17 18 18
36 35 32 30 29 29 29 29 30 29 27 25 24 24 23 22 21 20 19 19 17 15 13 13 13 13 12 10 8 7 6 4 3 2 1 1 2 3 4 6 7 8 9 10 10 11 11 11 11 11 11 11 11 12 12 13 14 15 15 16 16 16 16 17 17 17 18 18 18 19 19 19 19 20 20 20 19 19 19 19 19 18 17 17 18
37 36 34 33 31 30 28 28 29 29 28 27 26 26 25 24 22 22 21 21 19 17 16 15 15 14 12 10 9 8 6 5 5 3 2 1 1 2 4 5 6 7 8 9 10 10 11 11 11 11 11 12 12 12 13 14 15 15 16 17 17 17 18 18 18 18 18 19 19 19 20 20 20 21 21 21 20 20 21 21 21 20 19 18 18
39 38 36 36 34 31 29 28 28 29 30 31 30 29 28 27 25 24 23 22 21 20 18 17 16 14 12 10 9 8 7 6 6 5 3 1 0 1 2 4 5 5 7 7 8 9 10 10 11 11 12 12 13 13 14 15 16 16 17 17 18 19 19 19 19 19 19 19 19 19 19 20 20 20 19 19 20 21 21 21 21 21 20 20 20
41 40 39 38 36 33 30 29 29 29 31 32 33 33 32 30 28 26 25 24 23 22 21 20 17 15 13 11 10 9 8 8 8 6 4 3 2 1 1 2 3 4 5 6 6 7 8 9 10 11 11 12 13 14 16 17 18 18 18 19 19 20 20 20 20 19 19 19 18 18 18 18 18 18 17 17 18 19 20 20 21 21 21 21 21
43 43 42 40 38 35 33 31 30 30 31 32 33 34 34 33 31 29 27 26 25 24 24 22 19 16 15 13 12 10 9 9 9 7 6 5 3 2 1 1 1 2 3 4 5 6 7 7 9 10 11 12 13 15 16 18 19 20 21 21 21 21 21 21 20 20 19 18 17 17 17 17 17 17 17 16 16 18 18 19 19 20 20 20 21
44 44 43 41 39 37 35 34 32 31 31 32 33 33 34 34 33 31 29 27 26 27 26 24 21 18 17 15 13 11 10 11 10 8 7 6 5 4 2 1 1 2 2 3 4 5 6 6 7 8 9 11 12 14 16 17 19 21 22 23 23 22 22 22 21 20 18 16 16 16 17 16 16 16 17 17 16 16 17 17 18 18 18 18 19
46 45 44 42 40 39 37 36 34 33 32 32 32 32 33 34 33 32 30 29 29 29 27 25 22 21 19 17 15 13 12 12 11 10 9 8 7 5 4 3 2 2 2 3 4 4 5 6 7 8 9 10 11 13 14 16 17 19 20 22 24 24 23 22 21 20 18 16 15 15 15 15 14 14 15 15 15 15 15 16 16 16 16 16 16
47 46 45 43 41 40 39 38 36 34 33 31 31 32 33 34 34 32 30 29 29 28 26 25 24 23 21 19 17 16 14 13 12 11 10 10 9 7 5 4 3 3 3 3 4 4 5 6 7 8 9 10 11 11 13 14 15 16 17 19 21 23 23 21 20 19 17 16 15 14 14 14 13 13 13 13 14 14 14 14 14 14 14 14 15
47 47 46 44 42 41 40 39 38 36 34 32 32 33 35 36 35 32 30 28 28 26 25 25 24 23 22 21 20 19 17 15 15 14 12 11 10 8 7 6 4 4 4 4 4 5 5 6 7 8 10 11 12 11 11 12 13 14 15 16 18 20 21 20 20 18 16 15 14 13 13 12 11 11 11 12 13 13 14 15 15 15 15 15 16
45 46 46 45 43 42 41 41 39 38 36 34 34 35 36 37 35 32 29 28 27 26 25 24 24 23 23 23 22 21 19 18 17 15 14 13 12 10 9 7 6 5 5 5 5 5 5 6 7 8 9 11 13 12 11 11 12 13 13 14 15 17 18 19 19 19 17 16 14 12 11 10 9 9 9 10 12 13 14 16 17 18 18 18 18
41 44 47 47 45 43 42 42 41 40 39 38 37 36 37 37 35 32 29 28 28 27 26 25 24 24 24 24 23 21 20 19 19 17 15 14 13 12 11 9 8 7 7 7 7 6 6 7 8 9 10 11 14 14 12 10 11 11 12 12 13 14 15 16 17 17 17 17 15 13 11 9 7 6 6 8 11 13 15 17 18 19 19 20 21
38 43 46 46 45 44 43 43 42 42 42 41 39 37 37 37 34 32 30 30 29 28 27 26 27 27 27 26 24 22 20 19 19 18 17 15 14 13 13 12 9 8 8 8 8 7 7 9 10 10 11 12 14 15 14 11 10 10 11 11 11 12 13 13 14 14 15 17 16 14 12 9 5 2 2 5 9 13 15 17 18 19 19 20 21
46 49 49 48 48 47 45 45 44 43 43 42 40 38 37 36 35 33 33 32 30 29 29 30 30 29 29 28 26 24 22 20 20 19 17 16 15 15 15 13 10 9 10 9 9 9 9 10 11 12 13 13 14 16 16 13 10 9 9 9 9 10 10 11 10 10 12 14 16 16 14 10 5 2 2 2 8 12 14 15 17 18 18 18 20
55 54 53 52 52 50 48 47 47 46 45 44 42 40 37 36 36 36 35 34 33 32 33 32 31 31 30 29 28 26 23 22 21 20 18 17 16 15 16 14 11 11 11 10 9 9 10 11 12 13 14 15 16 16 17 15 12 9 9 8 8 8 9 9 8 8 8 10 13 15 16 14 9 4 6 4 3 8 10 12 13 14 15 16 17
58 57 56 55 54 51 50 50 49 49 48 46 44 42 39 37 37 38 38 37 36 36 35 34 33 32 31 31 30 28 25 23 23 22 20 19 17 16 16 15 13 13 13 11 10 10 11 12 12 13 15 17 18 18 18 17 14 12 11 10 9 9 9 9 10 9 7 7 10 12 15 16 14 9 8 10 6 0 4 7 8 10 11 13 14
61 60 61 59 56 54 53 53 53 52 51 49 47 44 41 39 39 40 41 40 38 38 38 37 35 34 33 32 30 28 26 25 24 23 22 21 19 17 16 15 15 15 14 13 12 11 11 12 13 13 15 18 20 21 20 18 16 15 14 14 14 13 12 11 12 13 11 8 7 9 12 15 16 14 10 10 11 8 4 0 2 4 7 9 11
64 64 64 63 61 59 58 57 56 54 52 51 49 46 44 42 42 43 43 42 41 42 41 40 39 37 35 33 30 28 27 27 26 25 24 23 21 18 17 16 16 16 16 15 13 12 10 10 12 13 15 18 21 22 22 20 18 17 17 17 18 18 17 15 13 15 16 14 12 11 11 14 17 16 13 11 12 11 9 7 4 1 3 5 8
68 67 66 65 64 63 62 61 58 56 55 53 50 48 47 46 46 46 46 46 45 45 44 43 42 41 39 36 32 30 29 29 29 28 26 25 22 19 18 17 17 17 17 16 15 13 11 11 12 14 16 18 20 22 22 22 20 20 19 19 19 20 21 20 18 17 18 18 17 18 18 18 19 18 16 14 13 13 12 12 10 5 1 2 4
72 70 68 68 67 65 64 63 61 59 57 54 50 48 48 51 51 50 49 49 49 48 47 46 46 44 42 39 36 33 32 32 31 30 28 26 23 20 18 18 17 17 18 17 15 14 13 14 15 17 17 18 18 19 21 21 22 21 21 21 22 22 23 24 24 23 22 20 19 20 23 23 23 23 20 17 15 15 15 15 14 11 6 2 2
75 72 70 70 70 68 67 66 64 61 60 58 53 49 49 53 56 55 53 53 53 52 51 49 48 46 44 41 38 36 35 34 33 32 30 28 24 20 20 20 19 19 19 17 14 13 15 16 18 19 18 17 16 16 18 19 20 22 23 24 25 25 25 26 26 26 25 23 21 22 25 26 26 26 25 23 20 19 20 22 20 17 14 8 5
78 75 73 73 73 71 69 69 68 66 65 63 60 55 52 53 57 58 56 56 56 56 54 52 50 48 45 42 40 38 37 36 35 33 31 29 26 24 23 24 22 21 20 16 14 14 17 19 20 19 17 16 16 16 16 16 18 20 23 25 27 28 29 29 28 29 29 26 25 26 28 29 29 28 26 26 25 24 23 24 22 18 17 14 11
81 79 77 75 75 74 72 72 72 72 71 69 67 62 57 54 57 59 59 58 58 57 57 55 53 50 47 44 42 40 39 39 37 34 33 32 29 28 27 27 26 25 22 18 17 18 21 22 21 18 16 16 16 17 17 17 18 20 22 24 26 29 30 31 30 31 32 30 29 29 31 32 32 30 26 26 27 25 23 22 20 16 16 17 17
84 83 81 78 77 76 75 74 75 76 76 74 71 67 62 59 60 61 61 60 60 58 57 57 55 52 48 46 45 43 41 40 39 37 36 35 33 31 30 29 29 28 25 21 20 22 25 26 24 19 17 16 17 17 17 18 19 21 22 23 24 27 30 31 32 32 34 34 33 34 34 34 34 32 30 28 27 26 25 25 23 19 18 19 20
87 86 83 82 80 79 78 77 78 79 79 77 73 70 66 64 64 64 63 62 61 59 57 57 56 54 51 49 48 45 43 43 41 40 40 39 36 35 33 31 30 29 27 24 24 26 29 29 26 23 21 19 18 18 18 19 20 22 22 22 24 27 29 31 32 32 33 35 35 35 35 35 35 35 33 30 28 29 31 33 33 30 26 23 22
89 88 85 84 83 82 81 81 80 80 80 79 76 73 70 68 68 68 66 64 63 61 59 58 57 56 54 52 49 47 46 45 44 43 43 43 41 39 37 34 31 30 28 26 27 30 31 30 28 27 26 24 22 20 19 20 21 22 22 23 24 26 29 30 31 32 33 35 35 33 32 34 36 37 35 33 32 33 35 38 38 35 30 25 22
90 90 88 87 86 86 85 83 82 82 81 80 78 75 73 71 71 71 69 67 65 64 62 60 59 58 56 54 52 50 49 48 46 45 45 45 45 44 40 37 34 31 30 30 31 32 32 31 30 30 30 28 26 23 21 21 22 22 23 24 25 27 29 30 30 31 33 35 35 32 31 33 37 38 37 36 36 36 35 37 40 38 33 28 24
91 92 92 90 89 89 88 86 85 83 82 82 81 79 76 73 72 72 71 70 67 66 64 63 62 60 59 57 56 55 53 52 50 48 46 46 46 46 44 41 37 35 33 33 33 33 33 33 33 33 33 31 28 25 22 22 22 22 24 25 26 28 30 31 31 31 33 34 35 34 33 35 39 40 37 37 40 39 35 36 39 40 36 32 29
94 94 94 94 93 93 91 89 87 85 84 83 83 82 80 77 75 74 73 72 70 68 67 66 65 63 62 60 59 58 56 55 54 52 50 48 47 47 46 44 42 39 37 36 35 35 35 35 36 36 35 34 31 28 25 23 23 23 24 26 27 29 31 33 33 33 33 35 36 36 35 37 41 41 38 37 40 41 39 37 37 39 39 37 36
97 96 96 97 97 96 94 92 90 88 86 84 84 83 83 82 79 77 75 75 73 71 70 69 67 65 64 63 62 60 58 57 56 56 55 52 50 48 47 47 45 43 41 39 38 37 37 37 38 39 39 37 35 31 29 26 24 23 24 27 29 30 32 34 36 36 35 36 37 38 37 38 41 42 40 37 38 40 41 39 37 37 39 41 40
101 99 98 98 99 99 97 95 92 90 87 85 84 83 84 84 83 80 78 77 77 75 73 71 70 69 67 66 65 63 60 58 57 57 58 57 54 52 49 48 47 45 44 42 41 40 40 41 41 42 42 40 38 36 32 29 26 25 25 27 30 31 33 35 37 38 38 38 38 40 41 41 41 43 43 41 40 41 42 42 38 35 36 39 40
105 103 101 100 101 101 100 98 95 92 89 87 85 84 85 86 85 83 81 80 79 77 75 74 73 72 71 69 68 66 64 61 59 59 59 60 59 56 53 50 49 48 47 46 45 44 44 45 46 45 43 42 41 39 36 32 29 27 27 28 30 31 33 36 38 40 42 42 41 41 42 43 44 44 44 44 45 45 45 43 39 35 34 35 37
107 106 104 103 103 103 103 101 98 94 92 90 88 86 86 86 87 86 85 83 80 78 77 76 75 75 75 73 71 69 67 65 63 62 62 61 60 60 58 55 53 52 51 49 48 48 48 49 48 46 44 43 43 41 38 36 34 32 30 30 30 31 33 36 40 43 45 46 44 43 44 46 48 47 45 45 47 47 46 45 41 37 36 37 37
110 109 108 107 106 105 105 104 101 98 96 94 92 90 89 88 88 88 88 86 83 80 79 77 76 77 77 76 74 72 71 69 68 67 65 63 62 62 62 59 57 56 55 54 53 52 52 52 51 48 46 45 44 43 42 41 41 39 37 36 35 35 37 39 43 46 48 49 48 48 47 48 49 48 45 45 46 46 46 46 45 41 41 44 45
113 112 112 110 109 107 107 107 105 102 99 98 96 94 92 91 90 89 89 88 85 84 82 80 78 77 78 78 77 75 74 73 72 71 69 66 64 63 63 62 61 60 59 59 59 58 56 54 52 50 48 47 47 46 45 45 46 47 47 44 41 40 41 44 47 50 51 51 50 51 51 51 50 48 46 45 45 45 46 48 49 48 47 49 52
116 115 114 114 112 110 108 107 107 106 103 101 99 98 95 93 92 91 90 89 87 86 86 85 83 80 79 79 79 78 77 76 75 74 72 69 66 64 64 63 63 63 62 62 62 63 62 58 54 51 49 48 48 48 48 48 49 50 49 47 45 44 45 48 50 52 54 54 53 53 53 52 51 51 51 50 47 46 47 49 51 51 50 52 55
119 118 117 116 114 112 109 108 109 109 107 104 102 101 99 97 95 93 92 90 89 88 88 88 87 85 82 81 81 81 80 78 78 77 76 73 71 68 66 65 65 65 65 65 65 66 65 63 58 54 52 50 49 48 48 49 51 52 52 52 51 49 49 52 53 52 51 52 54 55 55 54 52 52 53 52 49 48 50 52 53 53 53 53 56
122 121 119 118 117 114 112 110 110 110 108 106 104 103 102 100 99 97 95 93 91 90 90 90 89 88 86 84 83 83 82 81 80 79 78 77 75 73 71 69 68 67 67 66 66 67 67 66 63 58 55 53 51 49 49 50 53 55 57 57 54 50 50 53 54 53 51 52 56 59 59 57 56 55 54 54 53 52 53 54 54 54 55 56 57
125 123 122 120 119 117 114 112 111 111 110 108 106 105 104 104 102 101 98 96 94 93 93 92 92 91 90 87 85 84 84 84 83 82 81 80 79 77 75 73 71 70 69 68 67 67 68 68 67 63 60 58 56 53 52 54 56 57 58 57 53 50 52 56 58 58 59 60 62 62 60 58 58 59 57 57 59 59 57 56 54 54 55 57 58
126 125 123 122 121 120 117 114 112 112 111 109 108 107 107 107 106 104 102 100 98 96 95 94 94 93 93 91 89 86 86 86 85 85 84 83 82 81 79 77 75 73 71 69 68 68 68 70 70 68 65 64 62 58 57 59 60 59 59 58 54 52 56 61 61 62 65 67 66 64 61 58 59 60 59 58 59 60 58 56 54 53 54 57 59
128 126 125 124 124 122 120 117 115 113 112 111 110 110 110 110 109 108 106 103 101 99 97 96 95 95 95 94 93 90 88 87 87 87 86 86 84 83 82 81 79 77 74 72 70 69 68 69 70 70 69 68 67 64 63 63 64 63 62 62 60 58 59 62 63 63 65 68 69 69 65 59 59 62 64 63 62 59 55 54 54 55 57 59 61
129 128 127 127 126 125 123 120 118 116 115 113 112 111 112 112 112 111 109 107 105 103 101 98 97 96 96 96 95 94 92 91 90 89 89 88 87 86 85 84 82 80 78 76 73 71 70 69 69 70 70 70 71 70 69 69 69 68 67 67 67 65 65 67 67 67 67 67 69 70 67 62 59 57 56 57 59 59 57 57 60 62 64 64 64
130 129 129 128 128 127 125 123 121 119 117 116 114 112 112 113 114 113 111 109 108 106 104 102 100 99 98 97 97 96 95 94 93 92 91 91 90 89 87 86 85 84 83 81 78 76 74 73 72 72 72 72 72 73 72 73 73 73 73 73 72 71 71 73 74 74 71 69 70 73 73 70 65 59 54 57 62 66 68 69 70 71 71 69 66
131 130 130 130 129 129 127 125 123 121 120 118 116 114 112 113 114 115 114 112 111 109 107 105 103 102 100 99 98 97 97 96 95 93 93 93 93 92 90 88 87 87 86 85 84 81 79 78 76 75 74 74 74 75 76 76 77 78 79 79 78 77 76 76 76 74 72 71 72 76 78 78 75 70 67 68 72 75 76 76 76 76 74 71 67
132 132 131 131 131 130 129 127 125 124 122 120 119 116 113 112 114 115 115 115 115 113 110 108 106 105 103 102 99 98 97 96 95 94 94 94 93 93 93 91 89 88 87 87 86 85 83 82 81 79 78 79 79 80 80 80 81 82 83 82 81 79 77 75 72 71 72 72 73 76 80 82 82 80 79 78 77 77 78 79 80 79 77 75 73
Wind_Direction
229 232 232 233 233 234 236 240 244 248 251 254 256 257 259 257 252 250 254 261 269 283 304 325 338 341 344 347 352 356 357 356 357 3 10 16 17 17 19 21 22 23 24 24 23 21 18 14 12 12 13 15 17 19 21 23 23 20 15 13 10 7 4 2 1 1 1 2 1 359 357 355 354 353 351 350 348 347 343 339 336 335 334 334 335
228 231 233 235 235 235 235 238 241 245 248 251 253 254 255 254 249 247 252 259 267 276 289 305 318 324 325 330 334 340 341 341 341 344 349 357 2 3 3 4 6 9 12 15 14 14 12 8 5 3 4 5 7 10 12 13 14 12 8 4 2 359 357 354 353 353 353 353 351 349 347 346 345 344 343 342 341 341 340 338 337 335 333 333 333
229 230 232 236 237 236 236 237 240 243 246 248 250 252 253 251 247 246 252 261 268 276 283 295 305 310 311 311 313 320 326 329 332 336 340 345 350 352 353 352 354 355 358 0 2 0 357 353 351 352 354 356 358 0 2 3 4 3 1 358 354 352 350 347 346 345 345 345 344 342 341 341 341 340 339 338 339 339 339 340 339 336 333 335 336
230 229 230 234 237 236 234 235 238 241 242 244 247 249 251 249 244 244 250 259 268 276 284 292 300 304 304 301 302 305 310 318 325 333 338 342 346 349 351 351 352 352 353 354 355 354 350 343 339 340 342 343 346 348 350 351 351 352 351 349 346 344 342 340 338 338 337 337 336 337 338 340 340 340 339 338 339 339 340 341 341 339 337 337 339
232 229 230 232 236 237 235 234 236 238 239 240 243 246 247 246 242 241 246 253 263 272 282 291 297 300 298 296 296 297 302 310 323 335 340 343 346 349 354 357 358 358 358 357 356 354 350 345 340 336 334 333 333 334 334 335 335 335 335 335 334 333 332 331 331 331 333 333 333 334 337 339 340 340 339 340 341 342 342 342 341 339 338 338 341
237 233 231 232 235 238 238 236 236 237 238 238 239 241 242 242 241 241 244 250 257 266 277 286 293 294 291 290 292 292 295 304 318 336 342 344 349 353 357 2 6 9 8 6 4 0 356 351 346 341 335 331 328 326 324 322 321 320 320 320 320 320 321 321 322 326 329 331 331 333 335 338 338 337 338 340 342 343 343 342 340 339 338 338 341
239 237 235 234 236 239 241 241 240 239 238 238 238 239 240 240 240 242 245 249 254 262 272 281 285 284 282 283 285 284 286 290 298 312 331 346 354 1 5 8 13 17 17 16 13 9 5 0 355 349 343 337 332 328 324 321 318 317 315 314 312 312 312 314 317 320 324 326 327 328 330 332 334 333 334 337 339 340 341 339 338 337 338 337 339
238 240 239 238 238 240 243 245 245 243 240 238 237 238 239 239 241 244 248 251 256 262 269 275 276 274 273 274 275 273 272 272 271 272 288 343 9 15 18 20 21 21 20 20 19 16 12 9 4 358 353 348 343 338 334 329 326 324 322 319 316 314 314 316 319 322 324 324 324 325 326 328 329 329 330 332 334 334 333 333 331 331 333 334 335
233 238 240 240 240 241 244 247 247 245 242 239 237 238 239 240 241 244 248 253 258 262 265 267 267 266 265 265 264 260 258 256 252 252 257 288 22 31 30 32 30 27 23 23 22 20 18 14 9 5 1 358 354 350 346 342 339 337 334 329 326 323 322 325 329 331 331 330 329 329 328 329 330 330 330 330 329 328 327 326 325 324 326 326 327
227 231 236 238 238 239 242 245 246 244 241 239 238 239 240 241 241 243 247 252 257 260 261 260 260 259 258 257 255 250 244 244 244 245 246 252 314 25 36 38 36 31 27 24 23 22 20 17 12 8 6 4 2 360 359 356 352 348 343 338 335 332 332 334 338 340 341 339 338 338 336 335 335 336 336 333 330 326 326 325 323 323 323 322 322
221 224 228 232 234 236 239 242 243 241 239 238 238 240 241 242 242 243 245 249 253 256 257 256 255 254 253 251 246 240 234 235 239 240 242 246 260 302 18 37 34 27 25 23 21 21 20 16 11 9 9 7 6 6 7 6 4 359 354 349 345 342 341 340 342 346 349 347 346 345 344 343 342 342 342 340 334 329 328 327 325 324 325 323 322
219 221 223 226 228 231 235 237 239 238 236 236 236 238 242 244 244 243 244 245 248 251 252 251 250 248 247 244 240 234 228 230 237 240 242 246 252 262 280 344 7 10 16 12 11 14 16 12 8 8 8 7 8 10 12 12 10 6 4 1 357 353 348 344 345 350 354 354 352 350 349 350 349 346 346 347 342 337 335 332 329 328 328 328 327
220 220 222 223 224 226 229 232 234 234 233 232 233 236 239 242 243 243 242 242 244 245 246 245 244 243 241 238 234 230 225 227 235 240 242 248 250 252 257 273 310 336 350 352 354 1 4 0 359 2 3 4 7 13 15 15 14 11 10 8 5 1 355 350 350 354 358 0 360 356 355 357 357 352 352 355 354 350 347 342 339 338 338 336 335
221 220 222 224 224 224 226 229 230 231 230 229 230 232 236 239 241 240 238 238 238 239 238 238 238 237 235 232 228 224 220 224 233 238 241 248 251 249 252 255 265 292 312 320 328 341 349 347 345 350 354 356 4 12 14 15 15 14 12 10 8 4 360 357 356 358 0 5 8 5 360 3 6 1 359 4 9 8 5 359 354 354 354 352 352
222 220 221 223 225 225 227 229 230 230 229 228 228 229 232 236 237 237 236 235 234 233 232 231 230 228 226 224 222 219 214 216 225 234 239 246 252 251 250 252 255 263 277 288 306 321 333 335 334 338 341 343 352 7 13 13 14 14 11 9 6 3 1 360 359 1 2 5 11 11 6 7 14 14 10 13 19 24 25 22 18 17 16 14 14
224 222 221 223 226 227 228 229 230 231 230 228 227 227 229 232 234 234 233 233 232 230 227 225 224 222 220 219 218 214 207 207 217 227 234 244 251 253 252 253 255 257 264 274 292 308 318 323 325 329 332 332 336 352 7 10 10 13 11 6 1 359 358 358 358 359 1 3 6 11 11 11 16 21 23 27 32 38 43 43 42 41 39 35 32
225 223 222 223 226 228 229 229 231 232 231 229 227 226 227 229 231 231 230 229 229 228 226 225 225 224 223 222 220 214 206 204 211 219 228 239 248 253 255 255 255 256 263 273 285 300 310 315 319 324 325 324 326 336 354 3 2 7 9 6 359 354 352 353 354 354 355 358 360 3 7 10 11 15 27 42 50 53 55 55 55 54 52 50 46
226 226 225 224 225 228 229 229 230 232 232 232 230 228 228 228 228 228 226 224 224 223 222 223 226 227 229 230 229 223 213 208 210 215 222 232 242 249 253 254 253 254 261 273 284 294 303 309 315 321 322 321 321 325 338 351 353 356 1 4 0 352 346 346 349 349 348 351 354 355 356 1 7 10 28 52 62 64 64 63 62 60 58 57 54
225 228 227 225 227 231 233 232 231 232 233 234 233 231 230 229 228 226 224 221 219 219 218 220 222 224 228 232 234 233 225 217 216 218 220 226 234 241 249 252 252 252 260 272 283 291 298 304 309 314 317 317 318 320 325 336 342 343 347 353 354 348 340 338 342 344 342 344 348 348 347 351 358 1 36 68 73 72 70 68 66 63 62 62 60
220 224 225 224 225 229 233 234 233 233 234 234 235 234 233 232 230 228 224 220 218 217 218 219 221 223 226 230 234 237 234 229 227 226 223 225 230 236 244 249 251 253 261 271 282 289 296 299 302 307 310 312 314 315 317 322 327 328 330 334 337 335 329 327 330 337 337 338 340 342 342 343 340 264 223 107 82 76 73 71 70 67 65 66 65
216 218 221 223 223 225 227 230 231 232 233 233 234 234 233 233 232 230 226 221 218 218 219 220 222 224 226 229 233 236 237 237 237 235 231 229 229 234 243 248 248 250 258 269 279 289 296 298 300 304 304 306 308 310 311 313 314 312 310 309 310 311 310 307 308 316 327 331 333 335 337 338 333 290 251 240 91 73 70 71 73 71 69 69 68
216 215 217 220 222 224 227 229 229 230 231 231 232 232 232 232 232 232 230 225 221 220 221 221 222 224 225 227 230 233 235 238 240 241 239 236 234 236 243 248 249 252 259 267 276 285 293 297 300 302 301 302 304 305 306 307 307 306 303 297 293 289 288 285 283 287 302 322 329 331 331 330 330 319 280 260 256 9 66 68 71 73 72 70 71
218 216 215 216 217 220 225 229 229 228 228 229 230 231 231 231 231 232 232 228 224 223 223 222 222 222 223 223 225 228 232 236 239 242 243 243 242 242 246 251 255 260 266 271 275 282 290 297 300 299 297 299 300 301 302 303 305 306 302 297 294 288 281 274 272 274 278 288 308 322 323 319 320 321 306 279 270 265 255 263 64 76 78 74 71
220 218 217 215 213 214 220 225 227 227 227 228 228 229 229 230 231 232 232 230 226 225 224 223 222 222 222 222 223 226 229 233 236 239 242 244 245 246 249 254 260 266 271 275 277 282 290 297 299 295 292 292 294 298 301 302 303 301 297 296 295 293 289 285 278 274 273 275 280 290 298 301 304 308 308 299 290 278 257 241 237 203 94 83 72
221 220 218 217 214 213 217 222 224 225 226 226 226 227 229 230 230 231 231 230 227 226 225 224 223 222 222 223 225 226 228 231 233 235 238 241 243 244 248 254 259 266 271 274 278 285 291 293 290 285 282 283 289 295 299 301 300 296 292 291 291 290 291 291 288 282 279 277 277 279 281 282 285 289 294 299 300 292 270 247 236 234 233 81 70
221 220 219 218 217 217 217 219 222 224 223 222 224 228 229 229 229 229 229 229 227 226 225 225 225 225 225 226 227 227 229 231 233 234 235 237 239 240 244 249 254 260 266 270 277 285 291 288 283 279 278 282 288 293 295 298 299 297 294 292 289 288 290 291 291 289 286 284 283 282 280 278 276 275 279 286 292 291 285 274 258 247 248 272 15
221 220 219 219 219 219 219 218 219 221 221 219 221 227 230 228 226 226 227 227 227 226 225 225 226 227 228 228 228 228 230 232 234 234 235 235 235 235 238 243 247 254 262 267 273 280 283 281 279 279 283 288 294 296 295 296 298 299 299 298 296 294 292 290 291 292 291 290 288 283 281 281 277 273 273 277 280 282 289 294 285 263 250 263 298
221 220 219 219 220 221 221 220 219 219 221 220 219 225 231 228 223 223 226 227 227 227 226 226 227 229 230 230 228 228 230 232 234 236 236 237 235 233 235 238 243 250 258 262 263 266 269 271 274 280 287 293 299 302 302 301 300 299 299 300 300 300 299 297 296 296 294 292 289 284 280 280 278 277 274 274 276 279 286 295 295 274 249 252 277
220 220 219 219 220 221 222 222 220 219 221 221 221 226 231 227 222 223 225 226 227 228 227 227 228 230 231 231 229 228 229 232 234 236 238 239 239 237 237 239 243 250 256 260 260 260 261 262 266 275 285 292 297 301 304 306 305 301 300 302 303 302 302 302 303 302 299 297 292 285 280 278 278 280 279 274 273 275 277 282 288 278 257 261 281
220 220 219 219 220 221 222 222 221 221 222 222 223 227 229 226 223 224 225 226 227 228 229 229 229 230 230 231 230 229 230 231 234 235 238 241 242 242 241 241 243 248 254 259 263 264 264 265 268 275 284 288 291 295 299 303 304 302 301 303 303 301 301 303 305 306 306 302 295 288 286 285 283 281 279 274 271 272 273 273 273 273 273 281 293
220 220 220 219 219 221 221 222 221 222 223 223 224 226 227 226 224 224 225 226 227 228 229 230 230 229 230 230 230 230 231 233 234 236 238 240 242 243 243 242 243 246 250 255 260 264 267 271 277 283 289 289 289 292 297 302 303 301 301 300 298 297 299 300 303 307 308 305 300 295 292 289 286 282 278 277 278 282 283 280 276 271 272 278 285
220 221 221 220 220 220 221 221 222 222 223 224 224 225 227 226 225 225 225 227 227 227 229 230 230 230 230 231 231 231 233 235 236 237 238 239 241 242 242 243 244 247 248 251 255 261 266 272 279 285 289 290 287 288 294 300 301 300 299 296 294 293 294 297 301 306 308 306 303 299 294 290 289 285 280 279 282 285 286 285 281 275 270 275 282
220 221 221 221 220 221 221 221 222 222 223 223 224 225 226 226 226 225 225 226 227 227 228 229 229 230 231 232 233 234 235 237 238 238 239 240 241 241 241 242 245 248 249 250 254 260 265 271 276 282 288 288 283 281 288 296 299 300 299 297 295 294 294 297 302 305 306 306 305 300 293 289 287 284 281 280 282 284 283 282 281 277 272 275 286
221 221 221 222 221 221 221 221 222 222 222 223 224 225 226 226 226 226 226 226 227 228 228 229 229 230 232 234 236 237 238 238 239 239 240 241 241 241 240 242 245 249 251 253 256 260 264 268 273 279 285 287 280 274 279 289 294 297 298 298 298 298 299 301 302 302 303 306 307 301 292 285 282 282 283 284 285 285 280 275 277 277 273 269 275
222 221 221 222 222 221 221 221 222 222 223 223 223 224 226 227 227 227 227 227 228 228 229 229 230 231 232 234 236 238 238 238 238 239 240 241 242 242 241 242 244 248 252 254 257 261 264 266 271 276 281 282 277 269 270 280 288 293 296 298 299 299 300 300 301 302 303 305 306 302 293 285 282 283 287 287 284 283 278 272 271 274 272 267 266
223 222 221 222 223 222 221 221 221 222 223 223 223 224 225 226 227 227 227 228 228 229 229 230 230 231 232 234 236 238 238 238 238 239 240 241 241 242 242 241 243 247 251 253 256 260 263 265 269 272 274 276 274 267 264 272 282 289 295 297 296 296 298 299 300 302 303 302 303 302 298 290 285 284 287 288 286 283 279 273 269 270 271 270 265
224 223 222 222 222 222 222 221 220 221 223 224 224 224 225 226 227 227 228 228 228 229 230 230 230 231 232 233 235 236 238 238 239 240 241 241 241 242 242 242 243 246 250 251 253 257 260 262 265 267 269 273 275 271 265 268 278 286 292 297 297 297 297 298 299 301 302 301 301 302 301 296 290 286 285 287 288 287 283 276 270 269 272 270 266
224 224 223 222 221 222 222 222 221 220 221 223 224 224 225 226 226 227 228 228 228 229 230 230 231 231 232 233 234 235 237 238 239 240 241 242 242 242 243 243 244 246 247 249 250 254 257 260 262 266 270 276 280 277 270 267 275 285 290 295 298 297 297 298 300 301 300 299 299 299 299 297 295 291 286 283 285 288 287 281 273 267 266 264 262
223 224 224 223 222 222 222 223 222 221 220 221 223 224 226 226 227 227 228 228 228 229 230 231 231 231 232 233 234 235 236 237 239 240 241 243 244 245 244 244 244 246 248 249 250 252 257 260 263 267 273 278 281 280 273 267 270 280 288 293 295 293 292 297 301 301 298 297 297 297 297 298 298 295 288 283 282 284 285 283 277 268 261 259 260
223 224 224 224 223 222 222 223 223 222 221 221 222 223 225 226 226 227 228 228 228 228 230 231 231 232 232 233 234 235 235 236 238 240 241 243 246 246 246 245 245 247 249 250 250 252 256 261 264 267 270 273 276 278 274 268 267 274 283 288 291 290 291 296 301 301 298 296 295 295 296 299 299 293 286 284 283 281 278 279 279 272 262 259 261
222 223 224 225 224 223 222 223 224 224 223 223 223 224 225 226 226 227 228 228 228 229 229 231 232 233 233 234 234 235 236 237 238 239 241 243 245 246 247 246 246 247 248 250 251 252 255 259 263 266 268 270 271 273 273 270 269 273 279 283 285 287 291 295 299 299 297 296 295 294 295 298 297 290 283 282 285 282 277 276 277 274 268 264 265
221 222 224 225 225 224 224 223 224 224 224 224 224 225 225 226 227 228 228 228 228 229 230 231 232 234 234 234 235 236 236 237 238 239 240 242 243 245 246 246 247 247 248 249 251 253 255 258 262 265 268 269 269 269 270 271 271 273 278 281 283 286 288 292 297 298 296 295 295 295 294 295 293 286 280 280 282 282 279 277 276 274 272 270 270
221 222 223 225 225 225 224 224 224 224 225 225 225 225 226 226 227 228 229 229 229 229 230 231 232 234 235 235 235 236 236 237 239 239 240 241 242 243 245 246 247 247 248 249 250 253 255 259 262 264 266 268 269 269 271 272 272 274 277 280 283 286 289 292 296 297 295 294 295 295 294 293 289 284 280 278 279 280 281 279 275 272 270 270 272
220 221 223 224 226 226 225 225 225 225 225 225 226 226 226 227 227 228 229 229 229 229 231 232 233 234 235 236 236 236 237 238 239 240 240 241 242 243 245 246 247 247 248 249 250 252 255 258 261 262 264 266 267 268 269 269 269 271 275 278 283 287 290 291 292 291 291 293 294 294 294 293 289 285 281 276 275 279 282 280 275 270 267 267 270
220 221 222 224 226 227 226 226 226 226 226 226 226 226 226 227 227 228 228 229 229 229 230 232 233 234 235 236 237 237 237 238 239 240 241 242 242 243 244 245 247 247 248 249 250 252 254 257 260 261 263 264 265 267 268 268 266 266 271 279 285 288 287 286 286 286 288 290 290 289 289 289 286 285 283 278 274 276 279 279 275 271 266 265 266
220 221 222 223 225 226 227 227 226 227 227 227 227 227 226 226 227 228 229 229 229 229 230 231 233 234 235 236 237 238 238 239 240 241 242 242 243 243 244 245 246 248 249 249 250 251 253 256 259 261 262 263 265 266 267 269 269 269 273 278 282 282 281 282 282 284 287 289 288 287 286 283 280 281 283 281 277 274 274 273 273 271 269 267 266
220 221 222 223 224 226 227 227 227 227 228 228 227 227 226 226 227 228 229 229 230 230 230 231 232 234 235 236 237 238 239 240 241 242 243 243 244 244 245 245 246 248 249 250 250 251 253 255 258 261 262 264 265 266 267 268 270 272 275 277 278 278 278 278 278 280 283 285 285 285 285 283 282 282 282 281 279 275 271 270 272 274 276 276 273
220 220 221 222 223 225 226 227 227 227 228 228 228 227 227 227 227 227 228 229 230 231 232 232 232 233 234 236 237 238 240 241 242 243 244 245 245 245 245 246 246 247 248 249 250 251 252 254 257 259 262 264 266 267 268 268 270 272 274 276 278 279 279 278 277 279 281 282 282 282 282 283 285 284 280 275 275 275 274 274 276 279 281 282 280
220 221 221 222 223 224 225 226 227 227 228 229 228 228 228 228 228 228 229 230 231 232 233 233 233 233 234 235 236 238 239 241 242 244 244 245 245 246 246 247 247 247 248 249 250 250 252 253 255 258 261 263 265 267 268 269 271 272 274 276 278 279 278 277 277 278 279 281 281 281 280 281 282 281 274 267 268 272 275 276 277 279 282 283 282
221 221 221 222 223 224 225 226 226 227 228 229 229 228 228 228 229 230 230 230 231 233 234 235 235 235 235 235 236 237 238 240 241 243 244 245 246 246 247 247 248 248 249 249 250 251 252 253 255 257 259 262 264 266 268 269 271 273 275 278 279 279 278 279 278 277 277 279 279 279 278 278 279 278 275 271 271 273 274 274 276 279 281 282 282
221 221 222 222 223 224 225 226 226 227 227 228 229 229 228 229 230 230 230 231 232 233 235 236 237 236 236 236 236 237 237 239 240 242 243 244 245 246 247 248 249 250 250 251 251 252 253 254 256 257 259 261 264 265 267 269 271 274 276 279 281 280 279 277 275 273 276 278 279 277 276 276 277 277 277 276 276 275 275 275 277 279 280 281 281
Height
11002 11004 11006 11008 11009 11011 11012 11014 11015 11016 11017 11019 11021 11022 11023 11024 11025 11025 11026 11026 11026 11026 11026 11026 11027 11027 11027 11027 11027 11027 11027 11027 11026 11026 11026 11025 11025 11025 11025 11025 11024 11024 11024 11023 11023 11022 11022 11021 11020 11020 11019 11019 11019 11018 11018 11017 11017 11017 11017 11016 11015 11014 11013 11012 11012 11011 11010 11010 11009 11008 11007 11005 11004 11003 11002 11000 10999 10998 10996 10995 10993 10991 10989 10987 10986
10999 11001 11003 11005 11007 11008 11010 11012 11013 11014 11015 11017 11019 11020 11021 11022 11023 11024 11025 11025 11026 11026 11026 11026 11026 11027 11027 11027 11026 11026 11026 11026 11026 11026 11026 11025 11025 11024 11024 11024 11024 11024 11023 11023 11022 11022 11021 11021 11020 11019 11019 11019 11018 11018 11017 11017 11017 11017 11016 11016 11015 11014 11012 11011 11011 11010 11010 11009 11008 11007 11006 11005 11004 11003 11001 11000 10998 10997 10996 10994 10992 10990 10988 10987 10985
10997 10999 11001 11002 11004 11006 11008 11009 11010 11011 11013 11015 11016 11017 11019 11020 11022 11023 11024 11024 11025 11025 11026 11026 11026 11026 11027 11026 11026 11026 11026 11026 11026 11026 11026 11025 11025 11024 11024 11023 11023 11023 11022 11022 11021 11021 11020 11020 11019 11019 11019 11018 11018 11017 11017 11017 11016 11016 11015 11015 11014 11013 11011 11010 11010 11009 11009 11008 11007 11006 11005 11004 11003 11002 11001 10999 10998 10996 10995 10994 10992 10990 10988 10986 10985
10996 10997 10998 11000 11002 11004 11005 11006 11007 11008 11010 11012 11014 11015 11017 11019 11020 11021 11022 11022 11023 11024 11025 11025 11026 11026 11026 11026 11026 11025 11025 11025 11025 11025 11025 11025 11024 11024 11023 11023 11022 11022 11021 11021 11021 11020 11019 11019 11019 11018 11018 11018 11017 11017 11016 11016 11015 11015 11014 11014 11013 11012 11010 11009 11009 11008 11007 11007 11006 11005 11004 11003 11002 11001 11000 10998 10997 10995 10994 10993 10991 10989 10987 10985 10984
10994 10995 10996 10998 10999 11001 11002 11004 11004 11006 11007 11009 11011 11013 11015 11016 11018 11020 11020 11021 11022 11023 11024 11024 11025 11025 11025 11026 11025 11025 11025 11024 11024 11025 11025 11024 11024 11023 11023 11023 11022 11021 11021 11020 11020 11019 11019 11018 11018 11018 11017 11017 11016 11016 11016 11015 11014 11014 11013 11012 11011 11010 11009 11008 11008 11007 11006 11006 11005 11004 11003 11003 11002 11000 10999 10997 10996 10995 10993 10992 10990 10988 10986 10984 10983
10991 10993 10994 10996 10997 10998 10999 11001 11002 11003 11005 11007 11009 11011 11013 11014 11016 11018 11018 11019 11020 11021 11022 11023 11024 11024 11025 11025 11025 11025 11024 11024 11024 11024 11024 11023 11023 11023 11022 11022 11021 11021 11020 11019 11019 11018 11018 11017 11017 11017 11016 11016 11015 11015 11014 11014 11013 11012 11011 11011 11010 11009 11008 11007 11007 11007 11006 11005 11004 11003 11002 11001 11000 10999 10998 10996 10995 10994 10992 10991 10989 10987 10985 10983 10982
10988 10990 10993 10994 10995 10996 10997 10998 10999 11002 11004 11006 11007 11009 11010 11012 11014 11015 11016 11017 11018 11019 11020 11022 11023 11023 11023 11024 11024 11024 11024 11024 11024 11023 11023 11023 11022 11022 11021 11021 11021 11020 11020 11019 11018 11018 11017 11016 11016 11015 11015 11015 11014 11014 11013 11012 11011 11011 11010 11009 11008 11007 11006 11006 11006 11006 11005 11004 11003 11002 11001 11000 10999 10998 10997 10995 10994 10993 10991 10990 10988 10987 10985 10983 10981
10985 10987 10989 10992 10993 10994 10995 10996 10997 10999 11002 11004 11006 11007 11008 11009 11011 11013 11014 11015 11016 11018 11019 11020 11021 11022 11022 11023 11024 11024 11024 11023 11023 11023 11022 11022 11022 11021 11021 11020 11020 11020 11019 11019 11018 11017 11017 11016 11015 11014 11014 11013 11013 11013 11012 11011 11010 11009 11008 11007 11006 11005 11005 11005 11005 11004 11004 11003 11001 11000 10999 10998 10997 10996 10995 10994 10993 10991 10990 10988 10987 10985 10984 10982 10980
10980 10982 10985 10987 10989 10991 10993 10994 10995 10997 10999 11001 11003 11004 11005 11007 11009 11010 11011 11012 11014 11016 11017 11019 11019 11020 11021 11022 11023 11023 11023 11023 11023 11022 11022 11022 11021 11020 11020 11020 11020 11019 11019 11018 11018 11017 11016 11016 11015 11014 11013 11013 11012 11012 11011 11010 11009 11008 11007 11005 11004 11003 11003 11003 11003 11003 11002 11000 10999 10998 10997 10996 10995 10995 10993 10992 10991 10989 10988 10986 10985 10984 10983 10981 10979
10974 10976 10979 10981 10983 10987 10990 10991 10993 10994 10996 10998 10999 11001 11003 11005 11007 11008 11009 11010 11012 11014 11015 11017 11018 11018 11020 11021 11022 11022 11022 11022 11022 11022 11021 11021 11021 11020 11019 11019 11019 11019 11018 11018 11018 11017 11016 11016 11015 11014 11013 11012 11012 11011 11010 11009 11008 11007 11006 11004 11003 11002 11002 11002 11001 11001 10999 10998 10997 10996 10995 10994 10993 10993 10992 10991 10989 10988 10986 10985 10983 10982 10981 10980 10978
10966 10969 10972 10974 10977 10981 10984 10987 10989 10990 10992 10994 10996 10998 10999 11002 11004 11006 11007 11008 11010 11011 11013 11014 11015 11017 11018 11019 11020 11021 11022 11022 11021 11021 11021 11021 11020 11019 11019 11018 11018 11018 11018 11017 11017 11017 11016 11015 11015 11014 11013 11012 11011 11010 11010 11009 11008 11006 11005 11004 11003 11002 11001 11000 11000 10999 10998 10997 10995 10994 10994 10993 10992 10991 10990 10989 10988 10986 10985 10984 10982 10981 10980 10978 10976
10960 10963 10965 10968 10972 10975 10978 10981 10983 10986 10987 10989 10991 10993 10995 10998 11000 11002 11004 11006 11007 11008 11009 11011 11012 11014 11015 11016 11018 11019 11020 11021 11021 11021 11020 11020 11020 11019 11018 11018 11017 11017 11017 11016 11016 11016 11016 11015 11014 11013 11013 11012 11011 11010 11009 11008 11007 11006 11005 11004 11003 11002 11000 10999 10998 10997 10996 10995 10994 10993 10993 10992 10991 10989 10988 10988 10987 10985 10984 10983 10981 10980 10978 10977 10975
10955 10958 10962 10965 10967 10969 10971 10974 10977 10980 10982 10985 10987 10989 10991 10993 10995 10998 11000 11002 11004 11004 11005 11007 11008 11010 11011 11013 11015 11017 11018 11019 11019 11020 11020 11020 11019 11018 11017 11017 11016 11016 11015 11015 11015 11015 11015 11014 11014 11013 11012 11011 11010 11010 11009 11008 11007 11006 11005 11004 11003 11002 11000 10999 10997 10996 10995 10995 10994 10993 10992 10991 10990 10988 10987 10986 10985 10984 10983 10982 10980 10979 10977 10976 10974
10950 10954 10958 10961 10963 10965 10967 10969 10972 10975 10978 10980 10983 10986 10987 10989 10991 10993 10995 10997 10999 10999 11001 11003 11004 11006 11007 11009 11011 11013 11015 11016 11017 11018 11018 11019 11018 11018 11017 11016 11015 11014 11014 11013 11013 11013 11013 11013 11012 11012 11011 11010 11010 11009 11008 11007 11006 11006 11005 11004 11002 11001 11000 10999 10997 10996 10995 10994 10994 10993 10991 10990 10989 10988 10986 10985 10984 10983 10982 10981 10979 10978 10976 10975 10973
10946 10949 10953 10957 10960 10962 10964 10966 10968 10971 10974 10977 10980 10982 10983 10985 10986 10989 10991 10993 10994 10996 10998 10999 11000 11001 11003 11004 11006 11008 11010 11013 11014 11015 11016 11017 11017 11017 11016 11015 11014 11013 11012 11012 11012 11012 11012 11011 11011 11010 11010 11009 11009 11008 11008 11007 11006 11005 11004 11004 11002 11001 10999 10998 10997 10996 10994 10993 10993 10992 10991 10990 10988 10987 10986 10985 10983 10982 10981 10980 10979 10977 10976 10974 10973
10941 10945 10948 10953 10956 10959 10960 10962 10964 10967 10970 10973 10975 10977 10979 10980 10982 10985 10987 10990 10991 10993 10995 10997 10998 10999 11000 11001 11002 11003 11005 11008 11010 11011 11013 11014 11015 11015 11015 11014 11013 11012 11011 11011 11010 11010 11010 11010 11010 11009 11008 11007 11007 11007 11007 11006 11005 11005 11004 11003 11002 11001 10999 10997 10996 10996 10994 10993 10992 10992 10991 10990 10988 10987 10986 10984 10983 10982 10980 10979 10978 10976 10975 10973 10972
10937 10940 10943 10947 10950 10953 10956 10958 10960 10963 10966 10969 10971 10972 10974 10976 10978 10981 10984 10986 10988 10990 10993 10995 10997 10998 10999 10999 10999 11000 11002 11003 11005 11007 11009 11011 11012 11013 11013 11013 11012 11011 11010 11009 11009 11009 11008 11008 11008 11008 11007 11006 11005 11005 11005 11005 11004 11003 11003 11002 11001 11000 10999 10997 10996 10995 10994 10993 10992 10991 10991 10990 10988 10987 10985 10984 10983 10981 10979 10978 10977 10975 10973 10972 10970
10934 10936 10938 10941 10945 10948 10951 10953 10956 10959 10962 10964 10966 10968 10970 10972 10975 10977 10980 10982 10984 10986 10989 10991 10994 10996 10997 10997 10998 10999 11000 11001 11001 11003 11005 11007 11009 11010 11011 11011 11010 11010 11008 11007 11007 11007 11006 11006 11006 11006 11005 11004 11003 11003 11003 11003 11003 11002 11001 11001 11000 10999 10997 10996 10995 10994 10993 10992 10992 10990 10989 10989 10988 10987 10985 10983 10982 10980 10979 10977 10975 10974 10972 10970 10968
10931 10931 10933 10938 10942 10945 10947 10950 10952 10955 10957 10959 10962 10965 10967 10969 10972 10975 10977 10979 10981 10983 10985 10987 10989 10990 10992 10994 10996 10997 10999 10999 10999 11000 11001 11003 11005 11006 11007 11008 11008 11008 11007 11006 11005 11004 11004 11004 11003 11003 11003 11002 11001 11000 11000 11001 11001 11000 10999 10999 10998 10997 10996 10995 10994 10993 10992 10991 10990 10989 10988 10987 10987 10986 10984 10982 10981 10979 10978 10976 10974 10972 10970 10968 10966
10921 10921 10925 10931 10935 10937 10941 10945 10948 10950 10953 10955 10958 10961 10964 10967 10970 10972 10974 10975 10978 10980 10982 10983 10984 10986 10987 10990 10992 10994 10996 10997 10997 10997 10999 11000 11001 11003 11004 11005 11006 11006 11005 11004 11003 11002 11002 11001 11001 11001 11000 11000 10999 10998 10998 10998 10998 10998 10997 10997 10996 10995 10994 10993 10992 10991 10990 10989 10988 10987 10986 10985 10985 10984 10983 10981 10979 10978 10976 10975 10973 10971 10969 10967 10965
10909 10912 10917 10923 10926 10929 10934 10938 10941 10945 10947 10950 10953 10957 10960 10964 10966 10969 10970 10972 10975 10977 10978 10979 10981 10982 10984 10986 10988 10990 10993 10994 10994 10995 10996 10997 10998 11000 11001 11002 11003 11003 11003 11002 11001 11000 11000 10999 10999 10998 10998 10997 10997 10996 10995 10994 10995 10995 10995 10994 10993 10993 10992 10991 10990 10989 10988 10987 10986 10985 10984 10983 10982 10982 10981 10979 10977 10976 10975 10973 10971 10970 10968 10966 10963
10902 10905 10909 10914 10920 10926 10930 10933 10935 10938 10941 10944 10948 10951 10955 10959 10962 10964 10967 10969 10971 10972 10974 10975 10977 10979 10980 10982 10984 10986 10989 10991 10991 10992 10993 10994 10995 10997 10998 10999 11000 11001 11000 11000 10999 10999 10998 10997 10996 10996 10995 10994 10994 10993 10993 10991 10991 10991 10991 10991 10991 10990 10989 10988 10987 10986 10986 10985 10984 10983 10982 10980 10980 10979 10978 10977 10975 10974 10973 10971 10970 10968 10966 10964 10962
10896 10899 10901 10906 10913 10920 10925 10927 10929 10932 10934 10937 10941 10945 10949 10953 10956 10959 10962 10965 10967 10968 10969 10971 10973 10975 10976 10977 10979 10982 10985 10987 10988 10989 10989 10990 10992 10994 10995 10996 10997 10997 10997 10997 10997 10996 10996 10995 10994 10993 10992 10991 10990 10990 10990 10989 10988 10988 10987 10987 10987 10986 10986 10986 10985 10984 10983 10982 10982 10981 10979 10977 10976 10975 10975 10974 10973 10972 10970 10969 10967 10966 10964 10963 10961
10890 10893 10895 10899 10904 10910 10915 10919 10922 10925 10928 10931 10933 10937 10942 10946 10950 10954 10957 10960 10962 10964 10965 10966 10968 10970 10972 10973 10975 10977 10980 10983 10985 10986 10986 10987 10988 10990 10992 10993 10994 10994 10993 10993 10993 10993 10993 10992 10992 10991 10990 10989 10987 10986 10986 10986 10985 10985 10984 10983 10983 10982 10982 10982 10982 10981 10980 10979 10979 10978 10977 10975 10973 10971 10971 10971 10970 10968 10967 10966 10964 10963 10961 10960 10959
10880 10885 10890 10893 10897 10902 10906 10910 10914 10918 10921 10924 10925 10927 10932 10939 10944 10947 10950 10954 10957 10959 10961 10962 10964 10965 10967 10968 10970 10973 10976 10979 10981 10982 10982 10983 10985 10987 10988 10990 10990 10990 10990 10989 10989 10990 10990 10989 10989 10988 10987 10985 10985 10984 10983 10982 10982 10981 10980 10980 10979 10979 10978 10978 10978 10977 10976 10976 10975 10974 10973 10971 10969 10967 10967 10967 10966 10965 10964 10962 10961 10960 10958 10957 10955
10871 10877 10883 10887 10891 10895 10899 10903 10907 10910 10914 10917 10917 10917 10922 10930 10936 10940 10944 10948 10951 10953 10955 10957 10959 10960 10962 10964 10965 10968 10972 10974 10977 10978 10978 10979 10981 10983 10985 10986 10986 10986 10986 10986 10986 10986 10986 10985 10984 10983 10982 10982 10981 10981 10980 10979 10978 10977 10977 10976 10976 10975 10975 10975 10974 10973 10973 10972 10972 10971 10969 10967 10965 10964 10963 10963 10962 10961 10960 10959 10958 10957 10955 10953 10952
10863 10868 10875 10879 10884 10889 10893 10897 10901 10903 10906 10909 10909 10909 10915 10922 10927 10932 10937 10940 10943 10946 10949 10952 10954 10956 10958 10960 10962 10965 10968 10970 10972 10974 10974 10975 10977 10979 10980 10981 10982 10982 10982 10982 10983 10983 10982 10981 10979 10978 10978 10978 10978 10977 10976 10976 10975 10974 10973 10973 10972 10971 10971 10971 10970 10969 10968 10968 10968 10966 10964 10962 10961 10960 10959 10959 10958 10957 10956 10955 10954 10953 10952 10951 10949
10855 10860 10867 10871 10876 10881 10886 10890 10894 10896 10898 10901 10902 10904 10909 10915 10920 10924 10929 10933 10936 10940 10943 10946 10949 10951 10953 10956 10958 10961 10963 10965 10967 10969 10970 10971 10973 10974 10975 10976 10977 10978 10978 10979 10980 10979 10978 10977 10975 10974 10974 10974 10974 10973 10973 10972 10972 10971 10970 10969 10968 10967 10966 10966 10966 10964 10963 10963 10963 10961 10959 10958 10956 10955 10956 10955 10954 10954 10953 10951 10950 10949 10949 10947 10946
10846 10851 10857 10862 10867 10872 10877 10882 10886 10888 10890 10893 10896 10899 10903 10909 10913 10918 10922 10925 10929 10933 10937 10941 10943 10945 10948 10951 10954 10956 10957 10959 10961 10964 10966 10967 10968 10968 10969 10970 10971 10972 10973 10974 10975 10975 10973 10972 10972 10972 10972 10971 10971 10970 10969 10969 10968 10967 10966 10965 10965 10963 10962 10961 10961 10959 10958 10958 10957 10955 10954 10953 10952 10951 10952 10951 10950 10949 10949 10948 10947 10946 10945 10944 10943
10836 10841 10847 10853 10858 10863 10868 10873 10877 10880 10883 10886 10890 10893 10898 10903 10908 10911 10914 10918 10923 10927 10931 10935 10937 10940 10943 10946 10948 10950 10952 10953 10956 10959 10960 10961 10962 10963 10964 10965 10966 10966 10968 10969 10970 10969 10967 10967 10967 10968 10968 10968 10967 10966 10966 10965 10964 10963 10962 10961 10961 10959 10958 10956 10955 10954 10953 10953 10951 10949 10948 10948 10948 10947 10947 10946 10945 10945 10944 10944 10943 10942 10941 10941 10939
10826 10831 10837 10843 10848 10853 10858 10863 10867 10872 10875 10879 10884 10887 10891 10896 10901 10904 10908 10912 10917 10921 10925 10928 10931 10934 10937 10938 10941 10944 10946 10948 10950 10953 10954 10955 10957 10958 10959 10960 10960 10961 10963 10964 10964 10962 10961 10961 10962 10963 10963 10964 10963 10962 10962 10961 10960 10959 10958 10957 10956 10954 10953 10952 10951 10950 10948 10947 10945 10944 10943 10943 10943 10942 10941 10940 10940 10940 10940 10940 10940 10938 10937 10935 10932
10818 10823 10828 10834 10839 10844 10848 10853 10858 10863 10867 10871 10876 10880 10884 10889 10893 10897 10901 10905 10910 10914 10918 10921 10924 10927 10930 10932 10935 10938 10940 10942 10945 10947 10948 10949 10950 10951 10953 10955 10956 10957 10958 10959 10959 10957 10955 10956 10957 10958 10958 10958 10958 10958 10957 10957 10955 10954 10954 10953 10951 10950 10948 10947 10947 10946 10944 10942 10940 10939 10938 10937 10937 10936 10936 10935 10934 10934 10935 10935 10936 10935 10933 10930 10927
10809 10814 10818 10824 10829 10834 10839 10844 10849 10853 10858 10863 10868 10872 10876 10881 10885 10889 10893 10898 10902 10906 10910 10913 10916 10920 10923 10926 10928 10931 10933 10936 10938 10940 10941 10942 10943 10945 10947 10950 10951 10952 10952 10953 10952 10951 10951 10952 10953 10953 10953 10953 10953 10953 10953 10952 10951 10950 10949 10948 10946 10945 10944 10943 10943 10942 10940 10937 10936 10935 10934 10932 10930 10930 10930 10929 10928 10928 10928 10928 10928 10929 10929 10928 10925
10799 10804 10808 10813 10818 10823 10829 10834 10839 10844 10849 10854 10859 10864 10868 10872 10876 10880 10885 10890 10894 10898 10902 10905 10909 10912 10916 10918 10921 10923 10925 10929 10932 10934 10935 10936 10937 10939 10941 10943 10944 10945 10946 10946 10946 10946 10947 10947 10948 10948 10948 10948 10948 10948 10947 10946 10946 10945 10944 10943 10942 10941 10940 10939 10939 10937 10936 10934 10932 10931 10930 10928 10925 10924 10925 10925 10923 10922 10922 10921 10921 10922 10923 10923 10922
10787 10793 10798 10802 10806 10812 10818 10824 10829 10834 10840 10844 10849 10855 10859 10863 10868 10872 10876 10881 10886 10890 10893 10897 10901 10905 10908 10910 10913 10915 10918 10921 10924 10926 10928 10929 10931 10933 10934 10936 10937 10938 10939 10939 10940 10941 10941 10942 10942 10943 10943 10942 10942 10942 10942 10941 10940 10939 10939 10938 10938 10937 10935 10934 10934 10933 10932 10930 10928 10927 10926 10924 10920 10919 10921 10921 10918 10916 10915 10915 10915 10916 10917 10917 10916
10775 10781 10786 10790 10795 10801 10808 10814 10819 10824 10829 10835 10840 10845 10850 10854 10858 10863 10868 10872 10877 10880 10884 10889 10894 10897 10900 10902 10904 10907 10910 10913 10916 10919 10921 10923 10925 10926 10927 10928 10929 10931 10932 10933 10934 10935 10936 10936 10937 10936 10936 10935 10935 10936 10936 10935 10934 10934 10934 10933 10932 10932 10931 10930 10929 10928 10928 10926 10924 10922 10922 10921 10918 10916 10915 10915 10914 10911 10909 10909 10909 10909 10910 10910 10911
10762 10769 10775 10780 10785 10791 10796 10802 10808 10814 10819 10825 10830 10835 10840 10844 10849 10854 10858 10863 10867 10871 10876 10881 10885 10888 10891 10893 10895 10899 10902 10905 10908 10911 10913 10915 10917 10918 10920 10921 10923 10924 10925 10927 10927 10928 10928 10929 10929 10928 10928 10928 10929 10930 10931 10930 10929 10929 10928 10928 10927 10927 10926 10925 10923 10923 10923 10921 10919 10917 10916 10916 10915 10913 10911 10910 10909 10907 10905 10903 10904 10904 10904 10905 10907
10750 10757 10763 10770 10775 10780 10784 10790 10797 10804 10809 10815 10820 10825 10830 10834 10839 10844 10848 10853 10857 10862 10867 10871 10875 10879 10881 10884 10887 10891 10894 10897 10900 10903 10905 10906 10908 10910 10913 10915 10916 10917 10917 10919 10920 10921 10921 10921 10921 10921 10922 10924 10924 10925 10926 10926 10925 10924 10923 10923 10922 10922 10921 10920 10918 10918 10916 10915 10914 10912 10910 10909 10909 10908 10907 10905 10904 10903 10902 10900 10900 10900 10899 10900 10902
10738 10745 10752 10758 10764 10769 10773 10779 10787 10793 10799 10804 10809 10815 10819 10823 10829 10834 10838 10843 10848 10853 10857 10861 10866 10869 10871 10874 10879 10883 10886 10889 10892 10894 10896 10898 10900 10902 10905 10907 10908 10909 10910 10912 10913 10914 10914 10914 10915 10917 10919 10919 10919 10919 10920 10920 10919 10918 10918 10918 10917 10916 10915 10914 10913 10911 10910 10908 10908 10907 10905 10903 10902 10902 10901 10899 10898 10898 10898 10897 10896 10896 10895 10895 10895
10725 10732 10739 10746 10752 10758 10763 10769 10776 10783 10788 10793 10798 10803 10808 10812 10818 10823 10828 10834 10839 10844 10848 10852 10857 10859 10861 10866 10871 10875 10878 10880 10883 10885 10887 10890 10892 10893 10896 10900 10902 10902 10903 10903 10905 10907 10907 10908 10909 10911 10913 10913 10913 10913 10913 10913 10912 10911 10911 10911 10911 10910 10909 10908 10907 10906 10904 10902 10902 10901 10900 10898 10896 10895 10894 10892 10891 10891 10892 10891 10890 10891 10890 10888 10887
10712 10719 10726 10733 10740 10746 10752 10758 10765 10771 10777 10782 10787 10793 10798 10802 10807 10813 10818 10824 10830 10835 10839 10843 10847 10849 10853 10858 10862 10866 10869 10872 10873 10876 10879 10882 10884 10885 10888 10892 10894 10895 10895 10895 10897 10899 10900 10901 10903 10904 10906 10906 10906 10905 10904 10904 10904 10904 10904 10904 10904 10903 10902 10901 10900 10899 10897 10896 10895 10894 10893 10893 10891 10890 10888 10886 10885 10884 10884 10883 10883 10883 10883 10882 10880
10698 10706 10713 10720 10727 10734 10741 10747 10753 10759 10765 10771 10777 10783 10789 10793 10798 10803 10809 10814 10820 10824 10829 10833 10836 10840 10844 10849 10853 10857 10860 10863 10864 10867 10870 10873 10875 10877 10881 10883 10886 10887 10888 10889 10890 10891 10892 10894 10896 10897 10898 10898 10898 10897 10896 10896 10896 10896 10896 10896 10896 10896 10895 10894 10893 10892 10890 10888 10887 10887 10886 10886 10885 10883 10881 10880 10879 10878 10876 10875 10874 10874 10875 10874 10872
10685 10693 10700 10707 10714 10721 10729 10736 10741 10747 10754 10761 10767 10773 10779 10784 10789 10794 10798 10804 10809 10814 10819 10822 10826 10830 10835 10839 10843 10847 10851 10853 10855 10858 10861 10864 10866 10869 10872 10875 10877 10879 10880 10882 10883 10884 10885 10887 10888 10889 10891 10891 10890 10890 10890 10889 10889 10889 10888 10887 10888 10889 10887 10885 10884 10884 10882 10881 10879 10878 10878 10877 10876 10874 10873 10873 10872 10871 10870 10868 10867 10866 10866 10865 10863
10671 10680 10687 10694 10701 10708 10716 10723 10729 10735 10742 10749 10756 10762 10768 10773 10778 10783 10788 10793 10798 10803 10808 10812 10815 10820 10825 10829 10833 10837 10841 10844 10846 10849 10852 10855 10857 10860 10863 10866 10868 10870 10871 10873 10875 10876 10878 10879 10881 10882 10883 10883 10882 10883 10883 10883 10883 10882 10880 10879 10881 10882 10880 10877 10877 10877 10876 10875 10872 10870 10868 10868 10868 10866 10866 10865 10864 10863 10861 10861 10860 10859 10858 10857 10855
10658 10666 10674 10682 10689 10696 10703 10711 10718 10724 10731 10738 10745 10751 10757 10762 10767 10772 10777 10782 10787 10792 10797 10800 10804 10809 10814 10819 10823 10828 10831 10834 10837 10839 10842 10846 10848 10851 10854 10856 10858 10860 10862 10865 10867 10869 10870 10871 10872 10874 10875 10874 10874 10876 10877 10876 10876 10876 10875 10874 10875 10874 10871 10869 10869 10870 10869 10867 10865 10862 10861 10861 10859 10857 10857 10857 10856 10854 10853 10852 10851 10851 10850 10848 10847
10645 10653 10662 10670 10677 10683 10690 10698 10706 10713 10720 10726 10733 10739 10745 10750 10756 10761 10766 10771 10776 10781 10786 10790 10794 10799 10803 10808 10813 10817 10821 10824 10827 10830 10833 10836 10839 10841 10844 10846 10848 10851 10854 10857 10859 10861 10862 10862 10863 10865 10865 10865 10866 10869 10871 10869 10869 10870 10870 10869 10869 10867 10862 10859 10859 10859 10858 10856 10855 10855 10855 10855 10852 10849 10848 10848 10847 10846 10845 10844 10843 10842 10841 10840 10839
10631 10640 10649 10657 10664 10671 10678 10685 10693 10701 10707 10714 10720 10726 10732 10738 10744 10749 10755 10760 10765 10770 10775 10780 10784 10789 10793 10798 10802 10807 10811 10814 10817 10820 10823 10826 10829 10831 10834 10837 10839 10842 10845 10848 10850 10852 10854 10855 10855 10856 10857 10857 10858 10860 10861 10860 10859 10859 10860 10860 10860 10860 10857 10854 10852 10852 10851 10848 10847 10846 10847 10847 10845 10841 10839 10837 10836 10836 10835 10834 10833 10833 10832 10832 10831
10617 10627 10635 10643 10651 10658 10665 10672 10680 10687 10694 10701 10708 10714 10720 10726 10732 10738 10744 10749 10755 10759 10764 10769 10773 10778 10783 10787 10792 10796 10800 10804 10807 10810 10813 10816 10818 10821 10824 10827 10830 10833 10836 10839 10841 10843 10845 10847 10847 10848 10848 10849 10849 10850 10851 10850 10849 10850 10850 10849 10850 10851 10850 10848 10846 10846 10845 10843 10840 10837 10836 10837 10836 10832 10828 10825 10824 10824 10825 10824 10823 10823 10822 10822 10821
10604 10613 10621 10630 10637 10645 10652 10659 10667 10674 10681 10688 10695 10702 10709 10715 10721 10728 10734 10739 10744 10748 10753 10758 10762 10767 10772 10776 10781 10785 10789 10793 10796 10799 10802 10805 10808 10811 10814 10817 10820 10823 10826 10829 10831 10834 10835 10837 10839 10840 10841 10841 10841 10841 10842 10841 10840 10840 10840 10841 10842 10843 10843 10841 10839 10838 10837 10836 10832 10828 10826 10826 10826 10824 10820 10816 10813 10813 10814 10814 10813 10812 10811 10811 10810
10591 10600 10608 10616 10624 10631 10639 10647 10654 10661 10668 10675 10682 10690 10698 10705 10711 10717 10723 10729 10733 10737 10742 10747 10751 10756 10761 10766 10770 10774 10778 10782 10785 10788 10791 10794 10797 10801 10804 10807 10810 10812 10815 10818 10820 10823 10826 10828 10830 10832 10833 10833 10833 10833 10833 10832 10832 10831 10831 10832 10832 10833 10833 10833 10831 10828 10827 10827 10824 10820 10817 10815 10815 10815 10813 10809 10806 10805 10804 10803 10802 10800 10798 10798 10798
10578 10586 10594 10602 10610 10618 10626 10633 10641 10648 10656 10663 10669 10677 10686 10693 10698 10704 10711 10717 10722 10726 10731 10736 10741 10745 10750 10755 10759 10763 10767 10770 10774 10777 10780 10783 10786 10789 10792 10795 10798 10801 10804 10807 10810 10813 10816 10819 10821 10823 10824 10824 10824 10823 10823 10824 10825 10824 10823 10823 10823 10822 10822 10824 10823 10819 10817 10817 10816 10813 10809 10807 10805 10804 10803 10801 10799 10797 10795 10792 10790 10789 10788 10787 10786